Regional Weather Roundup
Issued by NWS

Home | Current Version | Previous Version | Graphics & Text | Print | Product List | Glossary On
Versions: 1 2 3 4 5 6 7 8 9 10 11 12 13 14 15 16 17 18 19 20 21 22 23 24 25 26 27 28 29 30 31 32 33 34 35 36 37 38 39 40 41 42 43 44 45 46 47 48 49 50
000
ASUS45 KBOU 011207
RWRCO

WEATHER ROUNDUP FOR COLORADO
NATIONAL WEATHER SERVICE DENVER/BOULDER CO
600 AM MDT TUE SEP 01 2015

NOTE: "FAIR" INDICATES FEW OR NO CLOUDS BELOW 12000 FEET WITH NO
SIGNIFICANT WEATHER AND/OR OBSTRUCTIONS TO VISIBILITY.

COZ001>005-013-030-031-011300-
...NORTHWEST COLORADO...

CITY           SKY/WX    TMP DP  RH WIND       PRES   REMARKS
CRAIG          PTCLDY    46  42  86 E3        30.21S
HAYDEN         NOT AVBL
MEEKER         CLEAR     46  43  89 NE3       30.22S
MOUNT WERNER   NOT AVBL
STEAMBOAT SPGS CLEAR     42  41  95 CALM      30.26S
WALDEN         CLEAR     37  34  87 SE5       30.33R
$$

COZ006>008-011-011300-
...WEST CENTRAL VALLEYS...

CITY           SKY/WX    TMP DP  RH WIND       PRES   REMARKS
GRAND JUNCTION PTCLDY    59  51  75 SE8       30.12R
MONTROSE       CLEAR     56  47  71 S5        30.21R
EAGLE          CLEAR     46  45  93 CALM      30.31S
RIFLE          CLEAR     54  48  80 CALM      30.20R
DELTA          CLEAR     61  50  68 E6        30.17S
NUCLA          CLEAR     57  43  58 E10       30.25R
$$

COZ017>023-064>068-011300-
...SOUTHWEST COLORADO...

CITY           SKY/WX    TMP DP  RH WIND       PRES   REMARKS
DURANGO        PTCLDY    50  42  74 N5        30.26R
CORTEZ         CLEAR     54  46  74 NE6       30.21S
PAGOSA SPRINGS PTCLDY    51  41  69 CALM      30.33S
TELLURIDE      PTCLDY    48  43  81 SE5       30.43S
WOLF CREEK PAS PTCLDY    41  36  81 SW14      30.60S
$$

COZ009-010-012-014-032>034-037-058>063-011300-
...CENTRAL COLORADO...

CITY           SKY/WX    TMP DP  RH WIND       PRES   REMARKS
ASPEN          CLEAR     46  42  86 S6        30.32S
BUENA VISTA    PTCLDY    47  40  79 NW9       30.33S
COPPER MTN     CLEAR     46  36  66 W16G25    30.57F
BERTHOUD PASS  FAIR      37  27  65 NW18G35   30.59S
COTTONWOOD PAS PTCLDY    55  36  47 SW13G21   30.43S
GUNNISON       PTCLDY    43  37  81 E3        30.38R
KREMMLING      CLEAR     37  36  93 CALM      30.35S
LEADVILLE      CLEAR     38  35  89 NE5       30.44S
MONARCH PASS   PTCLDY    43  36  75 W18       30.67S
SALIDA         PTCLDY    55  42  63 NW6       30.38R
SUNLIGHT       CLEAR     46  43  87 CALM      30.53S
WILKERSON PASS PTCLDY    45  34  65 W12G17    30.54S
$$

COZ069>075-011300-
...SAN LUIS VALLEY/SANGRE DE CRISTO MOUNTAINS...

CITY           SKY/WX    TMP DP  RH WIND       PRES   REMARKS
ALAMOSA        CLEAR     48  46  93 N3        30.30S
LA VETA PASS   MOCLDY    46  39  76 S9        30.45R
SAGUACHE       PTCLDY    48  43  81 NW9       30.33R
$$

COZ035-036-038>040-011300-
...NORTHERN COLORADO FRONT RANGE...

CITY           SKY/WX    TMP DP  RH WIND       PRES   REMARKS
DENVER INTL AP PTCLDY    56  50  80 S12       30.10S
DMNS CITY PARK   N/A     59  49  69 SE8       30.10S
AURORA         PTCLDY    59  51  73 S10       30.12F
FRONT RANGE AP NOT AVBL
ERIE MUNI ARPT PTCLDY    53  51  92 CALM      30.08S
BOULDER MUN AP PTCLDY    57  48  72 CALM      30.09R
CENTENNIAL     PTCLDY    56  50  80 SE7       30.13S
BROOMFIELD     PTCLDY    61  46  59 CALM      30.12R
FORT COLLINS   PTCLDY    54  46  76 N5        30.10R
LONGMONT       PTCLDY    54  49  82 W5        30.10S
$$

COZ041-046-047-076>085-087-088-011300-
...PIKES PEAK/PALMER DIVIDE AND SOUTHERN FOOTHILLS...

CITY           SKY/WX    TMP DP  RH WIND       PRES   REMARKS
COLO. SPRINGS  PTCLDY    55  50  83 NE8       30.18F
A. F. ACADEMY  PTCLDY    49  46  89 N10       30.20S
ELLICOTT       CLEAR    N/A N/A N/A N7        30.17S
FALCON         CLEAR     52  50  92 MISG      30.22F
FORT CARSON    CLEAR     55  52  88 N9        30.15S
LIMON          CLEAR     50  50 100 CALM      30.12F
MONUMENT HILL  CLEAR     52  48  87 S9        30.23S
TRINIDAD       CLEAR     56  48  74 W9        30.16S
$$

COZ042>045-048>051-090-091-011300-
...NORTHEAST COLORADO...

CITY           SKY/WX    TMP DP  RH WIND       PRES   REMARKS
GREELEY ARPT   PTCLDY    50  45  81 CALM      30.08S
AKRON          CLEAR     57  54  89 W10       30.06S
BURLINGTON     CLEAR     59  56  89 W8        30.05S
WRAY           CLOUDY   N/A N/A N/A SW6       30.01S
STERLING       CLEAR     54  54 100 SW6       30.02R
HOLYOKE        PTCLDY    61  57  88 W7        30.00F
FORT MORGAN    CLEAR     53  49  89 SW5       30.07R
$$

COZ086-089-092>099-011300-
...SOUTHEAST COLORADO...

CITY           SKY/WX    TMP DP  RH WIND       PRES   REMARKS
PUEBLO         PTCLDY    59  51  75 CALM      30.09S
LA JUNTA       PTCLDY    61  56  83 SW8       30.06R
LAMAR          PTCLDY    62  60  93 SW3       30.01S
SPRINGFIELD      N/A     60  53  77 W3        30.06F
$$




USA.gov is the U.S. government's official web portal to all federal, state and local government web resources and services.